Location: Foumourette
(45.0300°N, 4.2139°E)
Time: 00:47:00
(UTC+00:00)

Daily predictions for brighter satellites

Satellite Brightness Start Highest point End
(mag) Time Altitude Azimuth Time Altitude Azimuth Time Altitude Azimuth
SL-16 R/B 4.4 00:12:20 24° NNE 00:12:20 24° NNE 00:15:34 10° N
CZ-4C R/B 4.5 00:47:10 19° NNW 00:47:10 19° NNW 00:51:20 10° NNE
Cosmos 2227 Rocket 4.0 01:22:36 10° NNW 01:25:13 25° N 01:25:13 25° N
Lacrosse 5 4.4 01:32:48 15° E 01:32:48 15° E 01:33:57 10° ENE
USA 234 4.1 01:27:24 10° E 01:33:31 45° NNE 01:37:43 20° NW
ADEOS II 3.7 01:35:22 10° NNE 01:38:28 31° NE 01:38:28 31° NE
IDEFIX/ARIANE 42P 4.5 01:49:05 10° NE 01:53:10 22° E 01:53:41 22° E
SL-16 R/B 4.1 01:57:26 24° NNW 01:57:26 24° NNW 01:59:47 10° NNW
ARIANE 5 R/B 3.9 01:57:46 10° NNE 02:01:51 32° E 02:01:51 32° E
CZ-2D R/B 3.6 01:59:23 10° N 02:02:04 29° N 02:02:04 29° N
ATLAS 5 CENTAUR R/B 3.7 02:07:56 22° N 02:07:56 22° N 02:10:02 10° NNE
Cosmos 2297 Rocket 4.3 02:09:27 10° NNW 02:10:32 16° NNW 02:10:32 16° NNW
Resurs 1-4 Rocket 3.7 02:13:24 10° N 02:15:58 26° NNW 02:15:58 26° NNW
Cosmos 2082 4.1 02:13:45 10° NNW 02:19:23 60° ENE 02:20:23 52° ESE
SJ 16-02 4.4 02:26:53 10° NNE 02:29:20 14° NE 02:31:45 10° E
Cosmos 1697 Rocket 2.8 02:32:33 69° E 02:32:33 69° E 02:37:57 10° NNE
ASTEX 1 4.3 02:30:38 10° NNE 02:35:27 45° E 02:36:23 40° ESE
IRS-P3 4.2 02:30:44 10° NNE 02:35:28 70° N 02:35:28 70° N
Cosmos 1980 Rocket 3.2 02:35:19 36° SE 02:36:34 41° ESE 02:41:51 10° NE
H-2A R/B 4.2 02:33:04 10° ESE 02:36:40 26° ENE 02:40:19 10° N
USA 267 3.1 02:34:48 10° NE 02:41:21 77° NW 02:42:17 65° W
Cosmos 2263 Rocket 4.1 02:40:29 10° N 02:45:23 29° NE 02:50:16 10° ESE
SL-8 R/B 4.1 02:46:01 59° NNE 02:46:01 59° NNE 02:50:28 10° E
ERS-1 4.5 02:40:39 10° NNE 02:45:42 82° ENE 02:45:42 82° ENE
USA 307 3.6 02:52:25 53° ENE 02:52:25 53° ENE 02:55:44 10° ENE
USA 308 3.4 02:55:23 57° ENE 02:55:23 57° ENE 02:58:50 10° ENE
Cosmos 1821 Rocket 3.8 02:48:50 10° N 02:55:09 76° W 02:56:29 56° SSW
Cosmos 1470 Rocket 4.1 02:51:59 10° N 02:55:25 53° N 02:55:25 53° N
Spot 4 Rocket 4.1 02:53:33 10° NNE 02:58:43 74° ESE 02:59:44 56° SSE
SL-24 R/B 4.3 02:59:50 69° NW 02:59:50 69° NW 03:04:26 10° NNW
Celestis-02/Orion 38 4.4 03:00:47 10° SSE 03:06:04 79° WSW 03:11:17 10° NNW
Cosmos 1782 2.9 03:10:11 71° NNE 03:10:11 71° NNE 03:13:49 10° N
Cosmos 1934 Rocket 3.9 03:04:06 10° N 03:10:12 85° E 03:16:17 10° S
Cosmos 1777 Rocket 3.8 03:05:31 10° NNW 03:10:44 71° WSW 03:12:06 48° S
Cosmos 2227 Rocket 4.5 03:06:56 10° NW 03:06:56 10° NW 03:06:56 10° NW
Cosmos 1656 4.5 03:12:05 34° NW 03:12:07 34° NW 03:17:06 10° N
Cosmos 1238 Rocket 4.1 03:05:48 10° N 03:12:30 80° E 03:18:39 10° S
Lacrosse 5 1.8 03:12:00 65° W 03:12:32 72° NW 03:17:37 10° NE
ADEOS Rocket 4.4 03:08:49 10° SE 03:15:10 42° ENE 03:20:57 10° N
Cosmos 1515 Rocket 3.4 03:15:08 77° WSW 03:15:16 79° W 03:19:45 10° N
USA 234 3.1 03:09:45 10° SE 03:16:16 77° SW 03:22:50 10° NW
CZ-2C R/B 2.7 03:14:35 10° NNE 03:18:22 77° ESE 03:18:32 75° SE
Meteor 1-20 Rocket 4.3 03:13:29 10° NNW 03:18:42 50° W 03:18:42 50° W
Nadezhda 3 Rocket 4.1 03:18:39 46° WSW 03:19:47 52° WNW 03:25:48 10° N
ADEOS II 3.2 03:15:29 10° N 03:19:23 27° NW 03:19:23 27° NW
USA 276 3.3 03:21:38 38° NNE 03:21:38 38° NNE 03:24:11 10° ENE
Cosmos 972 Rocket 4.0 03:24:15 49° W 03:24:38 50° WNW 03:29:25 10° N
Cosmos 44 3.2 03:24:49 47° S 03:25:58 69° ESE 03:30:34 10° NE
Cosmos 1356 3.5 03:25:23 10° N 03:28:27 68° N 03:28:27 68° N
MSX 3.7 03:23:29 10° NNE 03:29:17 81° WNW 03:32:39 26° SSW
Cosmos 921 Rocket 3.5 03:27:48 25° S 03:29:59 54° ESE 03:34:05 10° NNE
Timation 1 Rocket 4.2 03:24:11 10° NNW 03:30:11 73° WSW 03:36:09 10° SSE
Cosmos 2278 3.6 03:28:11 41° SW 03:30:14 72° WNW 03:35:59 10° NNE
Cosmos 1605 Rocket 4.1 03:26:34 10° N 03:33:00 83° E 03:39:25 10° S
IDEFIX/ARIANE 42P 2.8 03:27:55 10° N 03:33:03 52° WNW 03:34:28 40° WSW
CZ-3B R/B 3.1 03:32:05 27° NW 03:33:19 34° N 03:41:04 10° ENE
Cosmos 2228 Rocket 3.0 03:31:11 29° S 03:33:26 83° E 03:37:51 10° N
Cosmos 1933 Rocket 3.5 03:29:30 10° NNW 03:33:47 55° W 03:34:18 52° WSW
Cosmos 1535 Rocket 4.5 03:27:29 10° NNW 03:33:50 69° W 03:40:10 10° S
Cosmos 1151 Rocket 4.4 03:37:30 23° NW 03:37:30 23° NW 03:40:10 10° NNW
Cosmos 2369 4.2 03:36:40 36° W 03:38:18 44° WNW 03:43:47 10° NNE
ARIANE 5 R/B 3.2 03:36:55 10° N 03:41:27 33° WNW 03:42:11 31° W
CZ-4C R/B 3.0 03:42:39 50° SW 03:43:16 59° W 03:46:50 10° NNW
ALOS 4.2 03:44:02 10° NE 03:48:07 29° E 03:52:11 10° SSE
IRIDIUM 106 4.4 03:43:44 10° N 03:48:59 82° E 03:54:12 10° S
ATLAS 5 CENTAUR R/B 4.1 03:50:19 10° NW 03:51:56 12° NNW 03:53:36 10° N
Cosmos 1869 Rocket 3.4 03:48:26 10° N 03:52:49 88° W 03:57:08 10° S
Meteor 1-4 Rocket 2.8 03:52:33 12° S 03:55:41 66° E 03:59:10 10° NNE
USA 305 3.6 03:58:51 26° WNW 04:00:43 41° NNW 04:04:47 10° NE
X-37B 0.5 04:01:25 39° W 04:02:28 89° N 04:05:40 10° E
USA 306 3.7 04:02:46 24° WNW 04:04:49 40° NNW 04:08:51 10° NE
Cosmos 1763 Rocket 4.0 04:00:41 10° S 04:05:56 65° ESE 04:11:12 10° NNE
Cosmos 1727 Rocket 4.0 03:59:38 10° S 04:06:00 89° E 04:12:22 10° N
Cosmos 389 Rocket 3.7 04:06:11 24° WNW 04:06:11 24° WNW 04:09:10 10° NNW
Meteor 1-31 Rocket 4.4 04:04:13 10° NNE 04:07:45 35° E 04:11:17 10° SSE
SJ 16-02 1.2 04:04:02 10° NNW 04:08:25 69° WSW 04:12:46 10° S
PSLV R/B 3.5 04:06:12 10° N 04:10:22 59° WNW 04:14:18 11° SSW
Cosmos 2360 Rocket 4.1 04:05:46 10° SSE 04:10:38 31° ESE 04:15:32 10° NE
H-2A R/B 2.7 04:08:31 10° SSW 04:12:28 34° W 04:16:32 10° NNW
ERS-2 2.3 04:09:48 10° S 04:13:22 49° W 04:16:56 10° NNW
Cosmos 1697 Rocket 4.1 04:14:19 17° W 04:16:52 22° NW 04:21:13 10° N
CZ-2C R/B 2.6 04:13:00 10° N 04:18:02 60° WNW 04:23:06 10° SSW
Gbstr 26 Del rocket 4.4 04:11:32 10° WNW 04:19:39 88° NNE 04:26:44 10° ESE
Cosmos 1980 Rocket 3.0 04:17:07 18° WSW 04:20:38 34° NW 04:25:47 10° N
PAYLOAD A 4.1 04:17:02 10° N 04:21:32 46° WNW 04:26:00 10° SW
USA 267 4.2 04:17:57 10° NE 04:23:50 37° NNW 04:29:37 10° W
Meteor 1-10 Rocket 4.4 04:20:03 10° SSW 04:25:40 56° WNW 04:31:27 10° N
FENGYUN 3A 4.0 04:20:19 10° NNE 04:25:43 70° ESE 04:31:06 10° S
Cosmos 2322 Rocket 2.5 04:20:08 10° SSW 04:25:46 74° ESE 04:31:29 10° NNE
SJ-6F 4.3 04:23:10 10° N 04:27:17 74° WNW 04:31:21 10° SSW
NOSS 3-3 (A) 4.0 04:22:36 14° SW 04:27:42 63° NW 04:34:14 10° NE
NOSS 3-3 (C) 4.0 04:22:46 13° SW 04:27:49 63° NW 04:34:19 10° NE
Cosmos 990 Rocket 3.9 04:22:56 10° NNW 04:28:06 68° WSW 04:33:15 10° S
SL-8 R/B 3.7 04:24:00 12° WNW 04:28:22 66° SSW 04:33:06 10° SE
Cosmos 1459 Rocket 4.1 04:23:14 10° N 04:29:23 82° E 04:35:25 10° S
Cosmos 2263 Rocket 2.4 04:24:06 10° NW 04:29:33 50° WSW 04:34:59 10° S
Cosmos 1812 3.5 04:27:26 12° SW 04:30:29 31° WNW 04:33:57 10° N
Cosmos 468 Rocket 4.0 04:25:17 10° SSW 04:30:34 71° WNW 04:35:52 10° NNE
USA 307 4.1 04:28:36 13° WNW 04:31:51 32° NNW 04:35:43 10° NE
SL-16 R/B 2.2 04:27:47 10° SSW 04:33:27 82° WNW 04:39:11 10° NNE
USA 308 4.1 04:31:34 12° WNW 04:34:59 31° NNW 04:38:49 10° NE
COSMO-SKYMED 1 3.5 04:31:00 10° SSE 04:35:13 53° ENE 04:39:27 10° N
Cosmos 1844 Rocket 4.0 04:31:04 10° NNW 04:36:29 45° ENE 04:41:52 10° SE
Cosmos 1500 4.4 04:33:45 10° NW 04:36:42 21° W 04:39:37 10° SW
SL-4 R/B 3.2 04:33:46 10° SW 04:38:11 48° SE 04:42:49 10° ENE
Cosmos 540 Rocket 4.0 04:34:06 10° S 04:39:11 65° ESE 04:44:20 10° NNE
Cosmos 44 Rocket 4.5 04:36:16 10° S 04:40:41 42° ESE 04:45:15 10° NE
ATLAS CENTAUR R/B 4.0 04:32:30 10° NW 04:41:24 38° NNE 04:45:14 10° E
Cosmos 1666 3.1 04:39:11 10° NNW 04:42:46 38° W 04:46:18 10° SSW
ATLAS 2AS CENTAUR R/B 3.3 04:35:43 10° NW 04:43:15 66° NE 04:50:08 10° SE
ERBS 2.5 04:42:54 11° WSW 04:46:04 55° NW 04:49:23 10° NE
CZ-4B R/B 2.0 04:44:38 10° SSW 04:47:28 31° W 04:50:23 10° NNW
Lacrosse 5 3.3 04:51:58 10° WNW 04:56:14 26° NNW 05:00:29 10° NE
deb Chang Zheng 4 4.0 04:52:13 10° N 04:56:18 42° WNW 05:00:19 10° SW
Cosmos 1898 Rocket 3.9 04:51:37 10° NW 04:56:33 42° WSW 05:01:29 10° S
USA 276 3.5 04:54:53 10° WNW 04:57:51 33° N 05:00:49 10° ENE
Cosmos 2173 Rocket 4.1 04:53:20 10° NNW 04:59:31 59° W 05:05:45 10° S
USA 234 4.4 04:55:11 10° S 04:59:58 21° WSW 05:04:46 10° WNW
CZ-4B R/B 2.7 04:56:46 10° NNE 05:00:29 86° ESE 05:04:04 10° SSW
CZ-4B R/B 4.2 04:56:23 10° N 05:00:36 58° WNW 05:04:56 10° SSW
ADEOS Rocket 3.7 04:54:21 10° SSW 05:00:41 37° W 05:06:29 10° NNW
Cosmos 2242 Rocket 4.4 04:56:46 10° S 05:01:05 58° E 05:05:24 10° NNE
BREEZE-M DEB (TANK) 2.4 04:55:13 10° WSW 05:01:37 78° SSE 05:04:13 10° ENE
